Time,TemperatureF,DewpointF,PressureIn,WindDirection,WindDirectionDegrees,WindSpeedMPH,WindSpeedGustMPH,Humidity,HourlyPrecipIn,Conditions,Clouds,dailyrainin,SoftwareType,DateUTC
2013-06-15 00:02:00,44.6,32.4,24.24,West,270,27.0,36.0,62,0.00,,,0.00,meteohub,2013-06-15 06:02:00,
2013-06-15 00:07:00,44.6,32.4,24.24,West,270,27.0,36.0,62,0.00,,,0.00,meteohub,2013-06-15 06:07:00,
2013-06-15 00:12:00,44.6,32.4,24.24,NW,315,30.0,31.0,62,0.00,,,0.00,meteohub,2013-06-15 06:12:00,
2013-06-15 00:17:00,44.6,32.4,24.24,West,270,36.0,39.0,62,0.00,,,0.00,meteohub,2013-06-15 06:17:00,
2013-06-15 00:22:00,44.8,32.2,24.24,West,270,34.0,39.0,61,0.00,,,0.00,meteohub,2013-06-15 06:22:00,
2013-06-15 00:27:00,44.6,32.4,24.24,West,270,30.0,39.0,62,0.00,,,0.00,meteohub,2013-06-15 06:27:00,
2013-06-15 00:32:00,44.4,32.2,24.23,West,270,31.0,36.0,62,0.00,,,0.00,meteohub,2013-06-15 06:32:00,
2013-06-15 00:37:00,44.4,32.5,24.24,West,270,32.0,35.0,63,0.00,,,0.00,meteohub,2013-06-15 06:37:00,
2013-06-15 00:42:00,44.4,32.5,24.24,West,270,28.0,34.0,63,0.00,,,0.00,meteohub,2013-06-15 06:42:00,
2013-06-15 00:47:00,44.4,32.2,24.24,West,270,30.0,36.0,62,0.00,,,0.00,meteohub,2013-06-15 06:47:00,
2013-06-15 00:52:00,44.2,32.4,24.24,West,270,28.0,36.0,63,0.00,,,0.00,meteohub,2013-06-15 06:52:00,
2013-06-15 00:57:00,44.2,32.4,24.23,NW,315,35.0,36.0,63,0.00,,,0.00,meteohub,2013-06-15 06:57:00,
2013-06-15 01:02:00,44.4,32.5,24.24,West,270,27.0,37.0,63,0.00,,,0.00,meteohub,2013-06-15 07:02:00,
2013-06-15 01:07:00,44.4,32.5,24.24,West,270,27.0,37.0,63,0.00,,,0.00,meteohub,2013-06-15 07:07:00,
2013-06-15 01:12:00,43.9,32.5,24.24,West,270,23.0,37.0,64,0.00,,,0.00,meteohub,2013-06-15 07:12:00,
2013-06-15 01:17:00,44.1,32.7,24.24,West,270,29.0,29.0,64,0.00,,,0.00,meteohub,2013-06-15 07:17:00,
2013-06-15 01:22:00,43.9,32.5,24.24,West,270,25.0,34.0,64,0.00,,,0.00,meteohub,2013-06-15 07:22:00,
2013-06-15 01:27:00,43.9,32.5,24.24,West,270,22.0,34.0,64,0.00,,,0.00,meteohub,2013-06-15 07:27:00,
2013-06-15 01:32:00,43.7,32.4,24.24,NW,315,28.0,34.0,64,0.00,,,0.00,meteohub,2013-06-15 07:32:00,
2013-06-15 01:37:00,43.9,32.5,24.22,WNW,293,34.0,35.0,64,0.00,,,0.00,meteohub,2013-06-15 07:37:00,
2013-06-15 01:42:00,43.9,32.5,24.23,NW,315,33.0,36.0,64,0.00,,,0.00,meteohub,2013-06-15 07:42:00,
2013-06-15 01:47:00,43.9,32.5,24.23,West,270,31.0,40.0,64,0.00,,,0.00,meteohub,2013-06-15 07:47:00,
2013-06-15 01:52:00,44.1,32.4,24.22,West,270,34.0,40.0,63,0.00,,,0.00,meteohub,2013-06-15 07:52:00,
2013-06-15 01:57:00,43.9,32.2,24.22,West,270,36.0,40.0,63,0.00,,,0.00,meteohub,2013-06-15 07:57:00,
2013-06-15 02:02:00,43.9,32.2,24.23,NW,315,34.0,40.0,63,0.00,,,0.00,meteohub,2013-06-15 08:02:00,
2013-06-15 02:07:00,43.9,32.2,24.22,NW,315,34.0,40.0,63,0.00,,,0.00,meteohub,2013-06-15 08:07:00,
2013-06-15 02:12:00,43.9,32.5,24.22,West,270,29.0,37.0,64,0.00,,,0.00,meteohub,2013-06-15 08:12:00,
2013-06-15 02:17:00,43.7,32.4,24.22,West,270,34.0,37.0,64,0.00,,,0.00,meteohub,2013-06-15 08:17:00,
2013-06-15 02:22:00,43.5,32.2,24.23,NW,315,32.0,37.0,64,0.00,,,0.00,meteohub,2013-06-15 08:22:00,
2013-06-15 02:27:00,43.5,32.5,24.23,West,270,37.0,37.0,65,0.00,,,0.00,meteohub,2013-06-15 08:27:00,
2013-06-15 02:32:00,43.7,32.4,24.23,West,270,29.0,37.0,64,0.00,,,0.00,meteohub,2013-06-15 08:32:00,
2013-06-15 02:37:00,43.5,32.2,24.23,West,270,30.0,37.0,64,0.00,,,0.00,meteohub,2013-06-15 08:37:00,
2013-06-15 02:42:00,43.5,32.2,24.23,NW,315,32.0,37.0,64,0.00,,,0.00,meteohub,2013-06-15 08:42:00,
2013-06-15 02:47:00,43.3,32.0,24.22,NW,315,32.0,35.0,64,0.00,,,0.00,meteohub,2013-06-15 08:47:00,
2013-06-15 02:52:00,43.5,32.2,24.22,NW,315,33.0,37.0,64,0.00,,,0.00,meteohub,2013-06-15 08:52:00,
2013-06-15 02:57:00,43.7,32.0,24.22,North,0,35.0,37.0,63,0.00,,,0.00,meteohub,2013-06-15 08:57:00,
2013-06-15 03:02:00,43.9,31.6,24.23,West,270,34.0,37.0,62,0.00,,,0.00,meteohub,2013-06-15 09:02:00,
2013-06-15 03:07:00,43.9,31.6,24.23,West,270,34.0,37.0,62,0.00,,,0.00,meteohub,2013-06-15 09:07:00,
2013-06-15 03:12:00,43.7,31.5,24.23,WNW,293,32.0,37.0,62,0.00,,,0.00,meteohub,2013-06-15 09:12:00,
2013-06-15 03:17:00,43.5,31.8,24.23,NW,315,28.0,34.0,63,0.00,,,0.00,meteohub,2013-06-15 09:17:00,
2013-06-15 03:22:00,43.5,31.8,24.24,WSW,248,28.0,34.0,63,0.00,,,0.00,meteohub,2013-06-15 09:22:00,
2013-06-15 03:27:00,43.5,31.8,24.24,West,270,27.0,34.0,63,0.00,,,0.00,meteohub,2013-06-15 09:27:00,
2013-06-15 03:32:00,43.3,31.6,24.24,NW,315,18.0,34.0,63,0.00,,,0.00,meteohub,2013-06-15 09:32:00,
2013-06-15 03:37:00,43.3,31.6,24.24,West,270,28.0,33.0,63,0.00,,,0.00,meteohub,2013-06-15 09:37:00,
2013-06-15 03:42:00,43.5,31.3,24.24,WNW,293,22.0,33.0,62,0.00,,,0.00,meteohub,2013-06-15 09:42:00,
2013-06-15 03:47:00,43.3,31.6,24.23,West,270,25.0,30.0,63,0.00,,,0.00,meteohub,2013-06-15 09:47:00,
2013-06-15 03:52:00,43.3,31.6,24.24,West,270,21.0,30.0,63,0.00,,,0.00,meteohub,2013-06-15 09:52:00,
2013-06-15 03:57:00,43.2,31.5,24.24,WSW,248,24.0,30.0,63,0.00,,,0.00,meteohub,2013-06-15 09:57:00,
2013-06-15 04:02:00,43.2,31.5,24.24,West,270,23.0,30.0,63,0.00,,,0.00,meteohub,2013-06-15 10:02:00,
2013-06-15 04:07:00,43.2,31.5,24.23,West,270,23.0,26.0,63,0.00,,,0.00,meteohub,2013-06-15 10:07:00,
2013-06-15 04:12:00,43.3,31.3,24.24,NW,315,23.0,28.0,62,0.00,,,0.00,meteohub,2013-06-15 10:12:00,
2013-06-15 04:17:00,43.3,31.3,24.24,West,270,23.0,30.0,62,0.00,,,0.00,meteohub,2013-06-15 10:17:00,
2013-06-15 04:22:00,43.2,31.5,24.23,West,270,24.0,30.0,63,0.00,,,0.00,meteohub,2013-06-15 10:22:00,
2013-06-15 04:27:00,43.3,31.3,24.24,NNW,338,27.0,30.0,62,0.00,,,0.00,meteohub,2013-06-15 10:27:00,
2013-06-15 04:32:00,43.9,30.6,24.24,West,270,17.0,28.0,59,0.00,,,0.00,meteohub,2013-06-15 10:32:00,
2013-06-15 04:37:00,43.5,30.9,24.24,West,270,18.0,28.0,61,0.00,,,0.00,meteohub,2013-06-15 10:37:00,
2013-06-15 04:42:00,43.5,30.9,24.24,West,270,26.0,29.0,61,0.00,,,0.00,meteohub,2013-06-15 10:42:00,
2013-06-15 04:47:00,43.5,30.9,24.24,West,270,20.0,29.0,61,0.00,,,0.00,meteohub,2013-06-15 10:47:00,
2013-06-15 04:52:00,43.2,31.1,24.24,West,270,20.0,26.0,62,0.00,,,0.00,meteohub,2013-06-15 10:52:00,
2013-06-15 04:57:00,43.0,31.3,24.24,West,270,25.0,26.0,63,0.00,,,0.00,meteohub,2013-06-15 10:57:00,
2013-06-15 05:02:00,43.2,31.1,24.24,West,270,25.0,26.0,62,0.00,,,0.00,meteohub,2013-06-15 11:02:00,
2013-06-15 05:07:00,43.2,31.1,24.24,West,270,25.0,26.0,62,0.00,,,0.00,meteohub,2013-06-15 11:07:00,
2013-06-15 05:12:00,43.3,30.7,24.24,West,270,27.0,27.0,61,0.00,,,0.00,meteohub,2013-06-15 11:12:00,
2013-06-15 05:17:00,43.3,30.7,24.24,West,270,23.0,27.0,61,0.00,,,0.00,meteohub,2013-06-15 11:17:00,
2013-06-15 05:22:00,43.2,31.1,24.24,West,270,16.0,27.0,62,0.00,,,0.00,meteohub,2013-06-15 11:22:00,
2013-06-15 05:27:00,43.3,30.7,24.24,West,270,22.0,27.0,61,0.00,,,0.00,meteohub,2013-06-15 11:27:00,
2013-06-15 05:32:00,43.5,30.6,24.24,North,0,19.0,23.0,60,0.00,,,0.00,meteohub,2013-06-15 11:32:00,
2013-06-15 05:37:00,43.7,31.1,24.24,NW,315,28.0,30.0,61,0.00,,,0.00,meteohub,2013-06-15 11:37:00,
2013-06-15 05:42:00,43.9,30.9,24.24,West,270,21.0,30.0,60,0.00,,,0.00,meteohub,2013-06-15 11:42:00,
2013-06-15 05:47:00,44.1,31.1,24.24,WSW,248,22.0,28.0,60,0.00,,,0.00,meteohub,2013-06-15 11:47:00,
2013-06-15 05:52:00,44.1,30.7,24.24,West,270,25.0,28.0,59,0.00,,,0.00,meteohub,2013-06-15 11:52:00,
2013-06-15 05:57:00,44.4,30.9,24.23,West,270,19.0,26.0,59,0.00,,,0.00,meteohub,2013-06-15 11:57:00,
2013-06-15 06:02:00,44.4,30.9,24.23,West,270,26.0,28.0,59,0.00,,,0.00,meteohub,2013-06-15 12:02:00,
2013-06-15 06:07:00,44.4,30.9,24.24,West,270,26.0,28.0,59,0.00,,,0.00,meteohub,2013-06-15 12:07:00,
2013-06-15 06:12:00,44.8,31.3,24.23,SW,225,16.0,28.0,59,0.00,,,0.00,meteohub,2013-06-15 12:12:00,
2013-06-15 06:17:00,44.8,30.9,24.24,West,270,23.0,26.0,58,0.00,,,0.00,meteohub,2013-06-15 12:17:00,
2013-06-15 06:22:00,45.0,31.1,24.23,SW,225,23.0,26.0,58,0.00,,,0.00,meteohub,2013-06-15 12:22:00,
2013-06-15 06:27:00,45.1,30.7,24.23,North,0,24.0,27.0,57,0.00,,,0.00,meteohub,2013-06-15 12:27:00,
2013-06-15 06:32:00,45.1,31.3,24.23,SW,225,23.0,27.0,58,0.00,,,0.00,meteohub,2013-06-15 12:32:00,
2013-06-15 06:37:00,45.0,31.5,24.23,SW,225,21.0,27.0,59,0.00,,,0.00,meteohub,2013-06-15 12:37:00,
2013-06-15 06:42:00,45.1,31.3,24.23,West,270,27.0,27.0,58,0.00,,,0.00,meteohub,2013-06-15 12:42:00,
2013-06-15 06:47:00,45.5,31.6,24.23,West,270,22.0,27.0,58,0.00,,,0.00,meteohub,2013-06-15 12:47:00,
2013-06-15 06:52:00,45.5,31.6,24.24,SW,225,19.0,27.0,58,0.00,,,0.00,meteohub,2013-06-15 12:52:00,
2013-06-15 06:57:00,45.9,31.1,24.24,West,270,17.0,27.0,56,0.00,,,0.00,meteohub,2013-06-15 12:57:00,
2013-06-15 07:02:00,46.0,31.3,24.23,West,270,23.0,24.0,56,0.00,,,0.00,meteohub,2013-06-15 13:02:00,
2013-06-15 07:07:00,46.0,31.3,24.23,West,270,23.0,27.0,56,0.00,,,0.00,meteohub,2013-06-15 13:07:00,
2013-06-15 07:12:00,46.2,31.5,24.23,SW,225,23.0,27.0,56,0.00,,,0.00,meteohub,2013-06-15 13:12:00,
2013-06-15 07:17:00,46.2,31.5,24.24,SW,225,21.0,24.0,56,0.00,,,0.00,meteohub,2013-06-15 13:17:00,
2013-06-15 07:22:00,46.6,30.7,24.23,SW,225,22.0,25.0,54,0.00,,,0.00,meteohub,2013-06-15 13:22:00,
2013-06-15 07:27:00,46.8,30.9,24.23,West,270,24.0,27.0,54,0.00,,,0.00,meteohub,2013-06-15 13:27:00,
2013-06-15 07:32:00,47.1,30.9,24.23,WSW,248,27.0,27.0,53,0.00,,,0.00,meteohub,2013-06-15 13:32:00,
2013-06-15 07:37:00,47.1,31.3,24.23,WSW,248,23.0,27.0,54,0.00,,,0.00,meteohub,2013-06-15 13:37:00,
2013-06-15 07:42:00,47.7,31.3,24.23,WSW,248,19.0,27.0,53,0.00,,,0.00,meteohub,2013-06-15 13:42:00,
2013-06-15 07:47:00,48.2,31.8,24.23,SW,225,17.0,27.0,53,0.00,,,0.00,meteohub,2013-06-15 13:47:00,
2013-06-15 07:52:00,49.1,30.7,24.23,SW,225,15.0,25.0,49,0.00,,,0.00,meteohub,2013-06-15 13:52:00,
2013-06-15 07:57:00,49.1,29.1,24.23,West,270,16.0,22.0,46,0.00,,,0.00,meteohub,2013-06-15 13:57:00,
2013-06-15 08:02:00,49.1,29.7,24.24,WNW,293,15.0,17.0,47,0.00,,,0.00,meteohub,2013-06-15 14:02:00,
2013-06-15 08:07:00,49.1,29.7,24.24,WNW,293,15.0,17.0,47,0.00,,,0.00,meteohub,2013-06-15 14:07:00,
2013-06-15 08:12:00,50.0,31.1,24.24,West,270,14.0,17.0,48,0.00,,,0.00,meteohub,2013-06-15 14:12:00,
2013-06-15 08:17:00,50.5,29.5,24.24,NW,315,8.0,16.0,44,0.00,,,0.00,meteohub,2013-06-15 14:17:00,
2013-06-15 08:22:00,51.6,26.8,24.24,South,180,11.0,16.0,38,0.00,,,0.00,meteohub,2013-06-15 14:22:00,
2013-06-15 08:27:00,52.3,27.5,24.24,South,180,8.0,15.0,38,0.00,,,0.00,meteohub,2013-06-15 14:27:00,
2013-06-15 08:32:00,52.3,28.8,24.24,South,180,11.0,17.0,40,0.00,,,0.00,meteohub,2013-06-15 14:32:00,
2013-06-15 08:37:00,52.9,30.9,24.24,SW,225,14.0,17.0,43,0.00,,,0.00,meteohub,2013-06-15 14:37:00,
2013-06-15 08:42:00,52.7,28.4,24.24,West,270,18.0,18.0,39,0.00,,,0.00,meteohub,2013-06-15 14:42:00,
2013-06-15 08:47:00,51.8,30.0,24.24,SW,225,15.0,18.0,43,0.00,,,0.00,meteohub,2013-06-15 14:47:00,
2013-06-15 08:52:00,51.8,29.5,24.23,SW,225,15.0,18.0,42,0.00,,,0.00,meteohub,2013-06-15 14:52:00,
2013-06-15 08:57:00,52.3,31.1,24.24,WSW,248,14.0,19.0,44,0.00,,,0.00,meteohub,2013-06-15 14:57:00,
2013-06-15 09:02:00,52.5,32.4,24.24,West,270,10.0,19.0,46,0.00,,,0.00,meteohub,2013-06-15 15:02:00,
2013-06-15 09:07:00,52.5,32.4,24.24,West,270,10.0,19.0,46,0.00,,,0.00,meteohub,2013-06-15 15:07:00,
2013-06-15 09:12:00,52.2,30.4,24.24,West,270,17.0,17.0,43,0.00,,,0.00,meteohub,2013-06-15 15:12:00,
2013-06-15 09:17:00,52.2,30.9,24.24,NW,315,14.0,18.0,44,0.00,,,0.00,meteohub,2013-06-15 15:17:00,
2013-06-15 09:22:00,53.1,31.6,24.24,WNW,293,16.0,18.0,44,0.00,,,0.00,meteohub,2013-06-15 15:22:00,
2013-06-15 09:27:00,53.1,30.6,24.24,WNW,293,14.0,18.0,42,0.00,,,0.00,meteohub,2013-06-15 15:27:00,
2013-06-15 09:32:00,53.4,32.5,24.24,West,270,13.0,16.0,45,0.00,,,0.00,meteohub,2013-06-15 15:32:00,
2013-06-15 09:37:00,53.8,29.5,24.24,West,270,13.0,16.0,39,0.00,,,0.00,meteohub,2013-06-15 15:37:00,
2013-06-15 09:42:00,53.6,28.0,24.24,NW,315,15.0,16.0,37,0.00,,,0.00,meteohub,2013-06-15 15:42:00,
2013-06-15 09:47:00,53.8,31.3,24.24,West,270,11.0,17.0,42,0.00,,,0.00,meteohub,2013-06-15 15:47:00,
2013-06-15 09:52:00,54.3,29.3,24.24,North,0,10.0,17.0,38,0.00,,,0.00,meteohub,2013-06-15 15:52:00,
2013-06-15 09:57:00,53.2,27.7,24.24,WNW,293,21.0,21.0,37,0.00,,,0.00,meteohub,2013-06-15 15:57:00,
2013-06-15 10:02:00,54.1,32.2,24.24,SW,225,14.0,21.0,43,0.00,,,0.00,meteohub,2013-06-15 16:02:00,
2013-06-15 10:07:00,54.1,32.2,24.24,SW,225,14.0,21.0,43,0.00,,,0.00,meteohub,2013-06-15 16:07:00,
2013-06-15 10:12:00,55.8,29.1,24.24,SW,225,12.0,21.0,36,0.00,,,0.00,meteohub,2013-06-15 16:12:00,
2013-06-15 10:17:00,56.3,32.9,24.24,West,270,9.0,14.0,41,0.00,,,0.00,meteohub,2013-06-15 16:17:00,
2013-06-15 10:22:00,57.0,30.4,24.24,SW,225,9.0,14.0,36,0.00,,,0.00,meteohub,2013-06-15 16:22:00,
2013-06-15 10:27:00,56.7,28.6,24.24,NW,315,11.0,12.0,34,0.00,,,0.00,meteohub,2013-06-15 16:27:00,
2013-06-15 10:32:00,56.1,28.0,24.24,WNW,293,13.0,13.0,34,0.00,,,0.00,meteohub,2013-06-15 16:32:00,
2013-06-15 10:37:00,55.0,25.7,24.24,West,270,17.0,17.0,32,0.00,,,0.00,meteohub,2013-06-15 16:37:00,
2013-06-15 10:42:00,55.0,26.4,24.24,SW,225,13.0,19.0,33,0.00,,,0.00,meteohub,2013-06-15 16:42:00,
2013-06-15 10:47:00,54.9,29.7,24.24,WSW,248,18.0,19.0,38,0.00,,,0.00,meteohub,2013-06-15 16:47:00,
2013-06-15 10:57:00,55.0,28.6,24.24,West,270,18.0,21.0,36,0.00,,,0.00,meteohub,2013-06-15 16:57:00,
2013-06-15 11:02:00,55.0,28.6,24.24,SW,225,17.0,21.0,36,0.00,,,0.00,meteohub,2013-06-15 17:02:00,
2013-06-15 11:07:00,55.0,28.6,24.24,SW,225,17.0,21.0,36,0.00,,,0.00,meteohub,2013-06-15 17:07:00,
2013-06-15 11:12:00,55.8,27.9,24.24,SW,225,15.0,20.0,34,0.00,,,0.00,meteohub,2013-06-15 17:12:00,
2013-06-15 11:17:00,55.8,26.4,24.24,West,270,12.0,17.0,32,0.00,,,0.00,meteohub,2013-06-15 17:17:00,
2013-06-15 11:22:00,56.1,25.9,24.24,West,270,19.0,19.0,31,0.00,,,0.00,meteohub,2013-06-15 17:22:00,
2013-06-15 11:27:00,56.1,33.3,24.24,West,270,13.0,19.0,42,0.00,,,0.00,meteohub,2013-06-15 17:27:00,
2013-06-15 11:32:00,56.1,25.9,24.23,West,270,18.0,19.0,31,0.00,,,0.00,meteohub,2013-06-15 17:32:00,
2013-06-15 11:37:00,55.9,26.4,24.23,NW,315,20.0,21.0,32,0.00,,,0.00,meteohub,2013-06-15 17:37:00,
2013-06-15 11:42:00,55.4,23.7,24.23,NW,315,27.0,27.0,29,0.00,,,0.00,meteohub,2013-06-15 17:42:00,
2013-06-15 11:47:00,56.1,24.3,24.24,NW,315,21.0,27.0,29,0.00,,,0.00,meteohub,2013-06-15 17:47:00,
2013-06-15 11:52:00,55.9,22.5,24.24,NW,315,15.0,27.0,27,0.00,,,0.00,meteohub,2013-06-15 17:52:00,
2013-06-15 11:57:00,56.5,25.3,24.23,West,270,19.0,27.0,30,0.00,,,0.00,meteohub,2013-06-15 17:57:00,
2013-06-15 12:02:00,57.0,24.3,24.24,West,270,20.0,29.0,28,0.00,,,0.00,meteohub,2013-06-15 18:02:00,
2013-06-15 12:07:00,57.0,24.3,24.23,West,270,20.0,29.0,28,0.00,,,0.00,meteohub,2013-06-15 18:07:00,
2013-06-15 12:12:00,57.4,21.9,24.24,WNW,293,15.0,21.0,25,0.00,,,0.00,meteohub,2013-06-15 18:12:00,
2013-06-15 12:17:00,57.6,27.1,24.24,West,270,13.0,23.0,31,0.00,,,0.00,meteohub,2013-06-15 18:17:00,
2013-06-15 12:22:00,58.1,26.1,24.24,NW,315,17.0,23.0,29,0.00,,,0.00,meteohub,2013-06-15 18:22:00,
2013-06-15 12:27:00,58.6,29.7,24.23,NW,315,20.0,23.0,33,0.00,,,0.00,meteohub,2013-06-15 18:27:00,
2013-06-15 12:32:00,58.1,19.4,24.23,West,270,18.0,23.0,22,0.00,,,0.00,meteohub,2013-06-15 18:32:00,
2013-06-15 12:37:00,58.1,23.4,24.22,NW,315,23.0,23.0,26,0.00,,,0.00,meteohub,2013-06-15 18:37:00,
2013-06-15 12:42:00,58.1,21.6,24.23,NW,315,27.0,27.0,24,0.00,,,0.00,meteohub,2013-06-15 18:42:00,
2013-06-15 12:47:00,58.1,18.3,24.23,West,270,29.0,29.0,21,0.00,,,0.00,meteohub,2013-06-15 18:47:00,
2013-06-15 12:52:00,58.5,23.7,24.22,NW,315,26.0,29.0,26,0.00,,,0.00,meteohub,2013-06-15 18:52:00,
2013-06-15 12:57:00,58.3,21.6,24.23,NW,315,26.0,29.0,24,0.00,,,0.00,meteohub,2013-06-15 18:57:00,
2013-06-15 13:02:00,58.8,24.1,24.22,NW,315,27.0,29.0,26,0.00,,,0.00,meteohub,2013-06-15 19:02:00,
2013-06-15 13:07:00,58.8,24.1,24.23,NW,315,27.0,28.0,26,0.00,,,0.00,meteohub,2013-06-15 19:07:00,
2013-06-15 13:12:00,58.5,23.7,24.22,WNW,293,25.0,28.0,26,0.00,,,0.00,meteohub,2013-06-15 19:12:00,
2013-06-15 13:17:00,59.2,28.6,24.22,NW,315,24.0,28.0,31,0.00,,,0.00,meteohub,2013-06-15 19:17:00,
2013-06-15 13:22:00,59.0,22.3,24.22,NW,315,28.0,28.0,24,0.00,,,0.00,meteohub,2013-06-15 19:22:00,
2013-06-15 13:27:00,59.0,24.1,24.23,West,270,19.0,29.0,26,0.00,,,0.00,meteohub,2013-06-15 19:27:00,
2013-06-15 13:32:00,59.5,30.4,24.23,NW,315,20.0,29.0,33,0.00,,,0.00,meteohub,2013-06-15 19:32:00,
2013-06-15 13:37:00,60.3,30.2,24.23,West,270,18.0,29.0,32,0.00,,,0.00,meteohub,2013-06-15 19:37:00,
2013-06-15 13:42:00,59.7,23.9,24.23,West,270,21.0,26.0,25,0.00,,,0.00,meteohub,2013-06-15 19:42:00,
2013-06-15 13:47:00,60.4,28.9,24.23,NNW,338,20.0,27.0,30,0.00,,,0.00,meteohub,2013-06-15 19:47:00,
2013-06-15 13:52:00,61.0,26.8,24.23,SW,225,21.0,27.0,27,0.00,,,0.00,meteohub,2013-06-15 19:52:00,
2013-06-15 13:57:00,61.0,23.9,24.22,SW,225,23.0,27.0,24,0.00,,,0.00,meteohub,2013-06-15 19:57:00,
2013-06-15 14:02:00,60.6,29.8,24.23,West,270,18.0,24.0,31,0.00,,,0.00,meteohub,2013-06-15 20:02:00,
2013-06-15 14:07:00,60.6,29.8,24.23,West,270,18.0,24.0,31,0.00,,,0.00,meteohub,2013-06-15 20:07:00,
2013-06-15 14:12:00,60.6,24.6,24.23,West,270,17.0,24.0,25,0.00,,,0.00,meteohub,2013-06-15 20:12:00,
2013-06-15 14:17:00,61.5,28.9,24.22,NW,315,17.0,22.0,29,0.00,,,0.00,meteohub,2013-06-15 20:17:00,
2013-06-15 14:22:00,61.3,22.1,24.23,SW,225,16.0,23.0,22,0.00,,,0.00,meteohub,2013-06-15 20:22:00,
2013-06-15 14:27:00,61.0,25.0,24.22,NW,315,27.0,27.0,25,0.00,,,0.00,meteohub,2013-06-15 20:27:00,
2013-06-15 14:32:00,61.3,25.2,24.22,SW,225,23.0,27.0,25,0.00,,,0.00,meteohub,2013-06-15 20:32:00,
2013-06-15 14:37:00,61.9,24.6,24.22,North,0,18.0,27.0,24,0.00,,,0.00,meteohub,2013-06-15 20:37:00,
2013-06-15 14:42:00,61.7,24.6,24.22,SW,225,18.0,27.0,24,0.00,,,0.00,meteohub,2013-06-15 20:42:00,
2013-06-15 14:47:00,61.9,22.6,24.22,West,270,21.0,23.0,22,0.00,,,0.00,meteohub,2013-06-15 20:47:00,
2013-06-15 14:52:00,62.4,25.2,24.22,NW,315,19.0,22.0,24,0.00,,,0.00,meteohub,2013-06-15 20:52:00,
2013-06-15 14:57:00,62.6,23.2,24.22,SW,225,15.0,21.0,22,0.00,,,0.00,meteohub,2013-06-15 20:57:00,
2013-06-15 15:02:00,62.2,23.9,24.22,SW,225,15.0,23.0,23,0.00,,,0.00,meteohub,2013-06-15 21:02:00,
2013-06-15 15:07:00,62.2,23.9,24.22,SW,225,15.0,23.0,23,0.00,,,0.00,meteohub,2013-06-15 21:07:00,
2013-06-15 15:12:00,63.3,23.9,24.22,West,270,23.0,23.0,22,0.00,,,0.00,meteohub,2013-06-15 21:12:00,
2013-06-15 15:17:00,62.8,18.7,24.22,West,270,16.0,23.0,18,0.00,,,0.00,meteohub,2013-06-15 21:17:00,
2013-06-15 15:22:00,63.7,20.7,24.22,WNW,293,18.0,23.0,19,0.00,,,0.00,meteohub,2013-06-15 21:22:00,
2013-06-15 15:27:00,63.9,28.2,24.22,West,270,12.0,23.0,26,0.00,,,0.00,meteohub,2013-06-15 21:27:00,
2013-06-15 15:32:00,64.2,19.8,24.22,NW,315,14.0,21.0,18,0.00,,,0.00,meteohub,2013-06-15 21:32:00,
2013-06-15 15:37:00,64.4,24.8,24.22,West,270,15.0,19.0,22,0.00,,,0.00,meteohub,2013-06-15 21:37:00,
2013-06-15 15:42:00,63.3,20.3,24.22,NW,315,15.0,23.0,19,0.00,,,0.00,meteohub,2013-06-15 21:42:00,
2013-06-15 15:47:00,64.8,30.0,24.21,WSW,248,15.0,23.0,27,0.00,,,0.00,meteohub,2013-06-15 21:47:00,
2013-06-15 15:52:00,64.6,22.6,24.21,West,270,15.0,23.0,20,0.00,,,0.00,meteohub,2013-06-15 21:52:00,
2013-06-15 15:57:00,64.0,21.0,24.21,NW,315,21.0,22.0,19,0.00,,,0.00,meteohub,2013-06-15 21:57:00,
2013-06-15 16:02:00,64.0,18.3,24.21,NW,315,21.0,24.0,17,0.00,,,0.00,meteohub,2013-06-15 22:02:00,
2013-06-15 16:07:00,64.0,18.3,24.21,NW,315,21.0,24.0,17,0.00,,,0.00,meteohub,2013-06-15 22:07:00,
2013-06-15 16:12:00,64.2,17.1,24.21,West,270,24.0,24.0,16,0.00,,,0.00,meteohub,2013-06-15 22:12:00,
2013-06-15 16:17:00,64.8,9.0,24.21,West,270,14.0,24.0,11,0.00,,,0.00,meteohub,2013-06-15 22:17:00,
2013-06-15 16:22:00,65.7,26.8,24.21,West,270,19.0,24.0,23,0.00,,,0.00,meteohub,2013-06-15 22:22:00,
2013-06-15 16:27:00,64.0,6.3,24.21,West,270,19.0,24.0,10,0.00,,,0.00,meteohub,2013-06-15 22:27:00,
2013-06-15 16:32:00,64.6,15.8,24.21,SW,225,15.0,23.0,15,0.00,,,0.00,meteohub,2013-06-15 22:32:00,
2013-06-15 16:37:00,64.8,20.3,24.20,NW,315,17.0,23.0,18,0.00,,,0.00,meteohub,2013-06-15 22:37:00,
2013-06-15 16:42:00,64.2,6.4,24.21,North,0,17.0,27.0,10,0.00,,,0.00,meteohub,2013-06-15 22:42:00,
2013-06-15 16:47:00,65.5,22.1,24.20,West,270,14.0,27.0,19,0.00,,,0.00,meteohub,2013-06-15 22:47:00,
2013-06-15 16:52:00,65.3,14.9,24.20,NW,315,22.0,27.0,14,0.00,,,0.00,meteohub,2013-06-15 22:52:00,
2013-06-15 16:57:00,65.1,65.1,24.20,NW,315,19.0,27.0,0,0.00,,,0.00,meteohub,2013-06-15 22:57:00,
2013-06-15 17:02:00,65.1,9.3,24.20,West,270,19.0,22.0,11,0.00,,,0.00,meteohub,2013-06-15 23:02:00,
2013-06-15 17:07:00,65.1,9.3,24.20,West,270,19.0,22.0,11,0.00,,,0.00,meteohub,2013-06-15 23:07:00,
2013-06-15 17:12:00,65.1,14.7,24.20,NW,315,16.0,20.0,14,0.00,,,0.00,meteohub,2013-06-15 23:12:00,
2013-06-15 17:17:00,65.5,65.5,24.21,West,270,10.0,21.0,0,0.00,,,0.00,meteohub,2013-06-15 23:17:00,
2013-06-15 17:22:00,65.8,22.5,24.21,NW,315,15.0,21.0,19,0.00,,,0.00,meteohub,2013-06-15 23:22:00,
2013-06-15 17:27:00,65.3,18.0,24.21,NW,315,10.0,21.0,16,0.00,,,0.00,meteohub,2013-06-15 23:27:00,
2013-06-15 17:32:00,65.7,9.7,24.21,NW,315,11.0,21.0,11,0.00,,,0.00,meteohub,2013-06-15 23:32:00,
2013-06-15 17:37:00,65.5,22.1,24.21,NW,315,11.0,21.0,19,0.00,,,0.00,meteohub,2013-06-15 23:37:00,
2013-06-15 17:42:00,66.2,13.8,24.21,West,270,10.0,15.0,13,0.00,,,0.00,meteohub,2013-06-15 23:42:00,
2013-06-15 17:47:00,66.0,25.0,24.21,West,270,9.0,15.0,21,0.00,,,0.00,meteohub,2013-06-15 23:47:00,
2013-06-15 17:52:00,66.0,21.2,24.21,West,270,10.0,16.0,18,0.00,,,0.00,meteohub,2013-06-15 23:52:00,
2013-06-15 17:57:00,65.7,18.3,24.20,NW,315,12.0,16.0,16,0.00,,,0.00,meteohub,2013-06-15 23:57:00,
2013-06-15 18:02:00,65.5,18.1,24.20,West,270,14.0,16.0,16,0.00,,,0.00,meteohub,2013-06-16 00:02:00,
2013-06-15 18:07:00,65.5,18.1,24.20,West,270,14.0,15.0,16,0.00,,,0.00,meteohub,2013-06-16 00:07:00,
2013-06-15 18:12:00,65.1,14.7,24.20,NW,315,14.0,15.0,14,0.00,,,0.00,meteohub,2013-06-16 00:12:00,
2013-06-15 18:17:00,65.7,21.0,24.20,NW,315,15.0,15.0,18,0.00,,,0.00,meteohub,2013-06-16 00:17:00,
2013-06-15 18:22:00,65.3,18.0,24.20,NW,315,11.0,16.0,16,0.00,,,0.00,meteohub,2013-06-16 00:22:00,
2013-06-15 18:27:00,65.1,20.5,24.21,NW,315,15.0,16.0,18,0.00,,,0.00,meteohub,2013-06-16 00:27:00,
2013-06-15 18:32:00,65.1,19.2,24.20,NW,315,16.0,18.0,17,0.00,,,0.00,meteohub,2013-06-16 00:32:00,
2013-06-15 18:37:00,65.3,21.9,24.21,NW,315,13.0,18.0,19,0.00,,,0.00,meteohub,2013-06-16 00:37:00,
2013-06-15 18:42:00,64.9,16.2,24.21,NW,315,13.0,18.0,15,0.00,,,0.00,meteohub,2013-06-16 00:42:00,
2013-06-15 18:47:00,64.8,16.0,24.21,NW,315,15.0,17.0,15,0.00,,,0.00,meteohub,2013-06-16 00:47:00,
2013-06-15 18:52:00,65.1,19.2,24.21,NW,315,12.0,16.0,17,0.00,,,0.00,meteohub,2013-06-16 00:52:00,
2013-06-15 18:57:00,65.1,21.7,24.20,NW,315,16.0,16.0,19,0.00,,,0.00,meteohub,2013-06-16 00:57:00,
2013-06-15 19:02:00,64.4,19.9,24.21,NW,315,12.0,16.0,18,0.00,,,0.00,meteohub,2013-06-16 01:02:00,
2013-06-15 19:07:00,64.8,18.9,24.21,NW,315,11.0,16.0,17,0.00,,,0.00,meteohub,2013-06-16 01:07:00,
2013-06-15 19:12:00,64.9,24.1,24.21,NW,315,15.0,16.0,21,0.00,,,0.00,meteohub,2013-06-16 01:12:00,
2013-06-15 19:17:00,64.6,18.9,24.21,NW,315,12.0,15.0,17,0.00,,,0.00,meteohub,2013-06-16 01:17:00,
2013-06-15 19:22:00,64.6,25.9,24.21,NW,315,11.0,15.0,23,0.00,,,0.00,meteohub,2013-06-16 01:22:00,
2013-06-15 19:27:00,64.4,22.5,24.21,NW,315,11.0,15.0,20,0.00,,,0.00,meteohub,2013-06-16 01:27:00,
2013-06-15 19:32:00,64.6,23.7,24.21,NW,315,9.0,15.0,21,0.00,,,0.00,meteohub,2013-06-16 01:32:00,
2013-06-15 19:37:00,64.6,23.7,24.21,NW,315,9.0,12.0,21,0.00,,,0.00,meteohub,2013-06-16 01:37:00,
2013-06-15 19:42:00,64.0,21.0,24.21,NW,315,14.0,15.0,19,0.00,,,0.00,meteohub,2013-06-16 01:42:00,
2013-06-15 19:47:00,63.7,25.2,24.21,NW,315,13.0,15.0,23,0.00,,,0.00,meteohub,2013-06-16 01:47:00,
2013-06-15 19:52:00,63.3,24.8,24.21,WNW,293,15.0,16.0,23,0.00,,,0.00,meteohub,2013-06-16 01:52:00,
2013-06-15 19:57:00,63.0,27.5,24.21,North,0,15.0,16.0,26,0.00,,,0.00,meteohub,2013-06-16 01:57:00,
2013-06-15 20:02:00,62.6,27.1,24.22,North,0,14.0,16.0,26,0.00,,,0.00,meteohub,2013-06-16 02:02:00,
2013-06-15 20:07:00,62.6,27.1,24.21,North,0,14.0,15.0,26,0.00,,,0.00,meteohub,2013-06-16 02:07:00,
2013-06-15 20:12:00,61.2,27.0,24.22,NW,315,13.0,15.0,27,0.00,,,0.00,meteohub,2013-06-16 02:12:00,
2013-06-15 20:17:00,61.5,25.3,24.21,NW,315,13.0,15.0,25,0.00,,,0.00,meteohub,2013-06-16 02:17:00,
2013-06-15 20:22:00,61.5,28.0,24.22,NW,315,11.0,15.0,28,0.00,,,0.00,meteohub,2013-06-16 02:22:00,
2013-06-15 20:27:00,61.5,24.4,24.22,NW,315,15.0,15.0,24,0.00,,,0.00,meteohub,2013-06-16 02:27:00,
2013-06-15 20:32:00,61.3,25.2,24.22,NW,315,12.0,15.0,25,0.00,,,0.00,meteohub,2013-06-16 02:32:00,
2013-06-15 20:37:00,59.9,26.8,24.22,NW,315,14.0,15.0,28,0.00,,,0.00,meteohub,2013-06-16 02:37:00,
2013-06-15 20:42:00,59.9,26.8,24.22,NW,315,14.0,15.0,28,0.00,,,0.00,meteohub,2013-06-16 02:42:00,
2013-06-15 20:47:00,59.5,26.4,24.22,NW,315,14.0,19.0,28,0.00,,,0.00,meteohub,2013-06-16 02:47:00,
2013-06-15 20:52:00,58.6,26.4,24.22,NW,315,11.0,19.0,29,0.00,,,0.00,meteohub,2013-06-16 02:52:00,
2013-06-15 20:57:00,57.9,26.6,24.22,NW,315,11.0,19.0,30,0.00,,,0.00,meteohub,2013-06-16 02:57:00,
2013-06-15 21:02:00,57.9,26.6,24.22,NW,315,11.0,15.0,30,0.00,,,0.00,meteohub,2013-06-16 03:02:00,
2013-06-15 21:07:00,57.9,26.6,24.22,NW,315,11.0,13.0,30,0.00,,,0.00,meteohub,2013-06-16 03:07:00,
2013-06-15 21:12:00,58.6,23.9,24.23,NW,315,8.0,11.0,26,0.00,,,0.00,meteohub,2013-06-16 03:12:00,
2013-06-15 21:17:00,58.6,21.0,24.22,NW,315,8.0,11.0,23,0.00,,,0.00,meteohub,2013-06-16 03:17:00,
2013-06-15 21:22:00,58.8,19.0,24.22,NW,315,11.0,11.0,21,0.00,,,0.00,meteohub,2013-06-16 03:22:00,
2013-06-15 21:27:00,58.5,18.7,24.22,NW,315,14.0,14.0,21,0.00,,,0.00,meteohub,2013-06-16 03:27:00,
2013-06-15 21:32:00,58.5,18.7,24.23,NW,315,11.0,14.0,21,0.00,,,0.00,meteohub,2013-06-16 03:32:00,
2013-06-15 21:37:00,58.5,17.6,24.23,NW,315,12.0,14.0,20,0.00,,,0.00,meteohub,2013-06-16 03:37:00,
2013-06-15 21:42:00,58.1,18.3,24.24,NW,315,10.0,14.0,21,0.00,,,0.00,meteohub,2013-06-16 03:42:00,
2013-06-15 21:47:00,58.1,18.3,24.24,NW,315,9.0,12.0,21,0.00,,,0.00,meteohub,2013-06-16 03:47:00,
2013-06-15 21:52:00,58.1,18.3,24.24,NW,315,10.0,12.0,21,0.00,,,0.00,meteohub,2013-06-16 03:52:00,
2013-06-15 21:57:00,56.5,21.9,24.25,NNW,338,18.0,18.0,26,0.00,,,0.00,meteohub,2013-06-16 03:57:00,
2013-06-15 22:02:00,55.2,25.2,24.25,North,0,17.0,21.0,31,0.00,,,0.00,meteohub,2013-06-16 04:02:00,
2013-06-15 22:07:00,55.2,25.2,24.25,North,0,17.0,21.0,31,0.00,,,0.00,meteohub,2013-06-16 04:07:00,
2013-06-15 22:12:00,54.0,28.9,24.25,North,0,17.0,21.0,38,0.00,,,0.00,meteohub,2013-06-16 04:12:00,
2013-06-15 22:17:00,53.6,29.8,24.26,North,0,10.0,17.0,40,0.00,,,0.00,meteohub,2013-06-16 04:17:00,
2013-06-15 22:22:00,53.8,30.0,24.26,North,0,11.0,17.0,40,0.00,,,0.00,meteohub,2013-06-16 04:22:00,
2013-06-15 22:27:00,53.2,30.2,24.26,NNE,23,13.0,17.0,41,0.00,,,0.00,meteohub,2013-06-16 04:27:00,
2013-06-15 22:32:00,52.9,31.6,24.26,NE,45,13.0,16.0,44,0.00,,,0.00,meteohub,2013-06-16 04:32:00,
2013-06-15 22:37:00,53.1,32.4,24.26,North,0,14.0,15.0,45,0.00,,,0.00,meteohub,2013-06-16 04:37:00,
2013-06-15 22:42:00,53.2,31.8,24.26,North,0,14.0,15.0,44,0.00,,,0.00,meteohub,2013-06-16 04:42:00,
2013-06-15 22:47:00,53.2,31.8,24.27,NE,45,13.0,15.0,44,0.00,,,0.00,meteohub,2013-06-16 04:47:00,
2013-06-15 22:52:00,53.1,31.6,24.27,North,0,13.0,15.0,44,0.00,,,0.00,meteohub,2013-06-16 04:52:00,
2013-06-15 22:57:00,52.7,32.5,24.27,North,0,12.0,15.0,46,0.00,,,0.00,meteohub,2013-06-16 04:57:00,
2013-06-15 23:02:00,52.7,32.5,24.27,North,0,14.0,15.0,46,0.00,,,0.00,meteohub,2013-06-16 05:02:00,
2013-06-15 23:07:00,52.7,32.5,24.27,North,0,14.0,14.0,46,0.00,,,0.00,meteohub,2013-06-16 05:07:00,
2013-06-15 23:12:00,52.7,32.5,24.27,North,0,16.0,17.0,46,0.00,,,0.00,meteohub,2013-06-16 05:12:00,
2013-06-15 23:17:00,52.9,32.7,24.27,NE,45,16.0,17.0,46,0.00,,,0.00,meteohub,2013-06-16 05:17:00,
2013-06-15 23:22:00,52.9,32.7,24.27,North,0,15.0,17.0,46,0.00,,,0.00,meteohub,2013-06-16 05:22:00,
2013-06-15 23:27:00,52.7,32.5,24.27,North,0,15.0,17.0,46,0.00,,,0.00,meteohub,2013-06-16 05:27:00,
2013-06-15 23:32:00,52.3,32.7,24.27,North,0,15.0,17.0,47,0.00,,,0.00,meteohub,2013-06-16 05:32:00,
2013-06-15 23:37:00,52.3,32.2,24.27,North,0,15.0,17.0,46,0.00,,,0.00,meteohub,2013-06-16 05:37:00,
2013-06-15 23:42:00,52.2,32.5,24.27,NE,45,15.0,17.0,47,0.00,,,0.00,meteohub,2013-06-16 05:42:00,
2013-06-15 23:47:00,52.2,32.5,24.27,North,0,15.0,17.0,47,0.00,,,0.00,meteohub,2013-06-16 05:47:00,
2013-06-15 23:52:00,52.5,31.8,24.27,NNE,23,13.0,17.0,45,0.00,,,0.00,meteohub,2013-06-16 05:52:00,
2013-06-15 23:57:00,52.7,31.5,24.27,North,0,14.0,17.0,44,0.00,,,0.00,meteohub,2013-06-16 05:57:00,